Paris / Charles De Gaulle, France

4:37 AM CEST on October 17, 2017 (GMT +0200)
Charles de Gaulle

Weather History for LFPG - September, 2013

Change the Weather History Date:

Saturday, September 7, 2013

  Actual Average Record
Temperature  
Mean Temperature 62 °F -  
Max Temperature 68 °F 66 °F 82 °F (2004)
Min Temperature 55 °F 51 °F 47 °F (2015)
Degree Days  
Heating Degree Days 4    
Growing Degree Days 12 (Base 50)    
Moisture  
Dew Point 45 °F    
Average Humidity 57    
Maximum Humidity 82    
Minimum Humidity 33    
Precipitation  
Precipitation 0.00 in - - ()
Sea Level Pressure  
Sea Level Pressure 30.03 in    
Wind  
Wind Speed 5 mph ()    
Max Wind Speed 9 mph    
Max Gust Speed 20 mph    
Visibility 6.2 miles    
Events      
Averages and records for this station are not official NWS values.
T = Trace of Precipitation, MM = Missing Value Source: Averaged Metar Reports

Daily Weather History Graph

Daily Weather History Graph

Search for Another Location

Airport or City:

Trip Planner

Search our weather history database for the weather conditions in past years. The results will help you decide how hot, cold, wet, or windy it might be!

Date:

Astronomy

Sep. 07, 2013 Rise Set
Actual Time 7:14 AM CEST 8:19 PM CEST
Civil Twilight 6:42 AM CEST 8:52 PM CEST
Nautical Twilight 6:03 AM CEST 9:30 PM CEST
Astronomical Twilight 5:21 AM CEST 10:12 PM CEST
Moon 9:28 AM CEST (9/7) 8:51 PM CEST (9/7)
Length of Visible Light 14h 09m
Length of Day
13h 04m
Waxing Crescent, 4% of the Moon is Illuminated
Sep 7
Waxing Crescent
Sep 12
First Quarter
Sep 19
Full
Sep 27
Last Quarter
Oct 5
New

Hourly Weather History & Observations

Time (CEST) Temp. Dew Point Humidity Pressure Visibility Wind Dir Wind Speed Gust Speed Precip Events Conditions
12:00 AM 60.8 °F 55.4 °F 82% 29.95 in 6.2 mi WNW 2.3 mph - N/A   Mostly Cloudy
12:30 AM 60.8 °F 53.6 °F 77% 29.95 in 6.2 mi Calm Calm - N/A   Scattered Clouds
1:00 AM 60.8 °F 55.4 °F 82% 29.95 in 6.2 mi Calm Calm - N/A   Scattered Clouds
1:30 AM 60.8 °F 53.6 °F 77% 29.95 in 6.2 mi Variable 1.2 mph - N/A   Mostly Cloudy
2:00 AM 60.8 °F 53.6 °F 77% 29.95 in 6.2 mi SSW 2.3 mph - N/A   Mostly Cloudy
2:30 AM 60.8 °F 55.4 °F 82% 29.95 in 6.2 mi South 3.5 mph - N/A   Mostly Cloudy
3:00 AM 60.8 °F 55.4 °F 82% 29.95 in 6.2 mi SSW 4.6 mph - N/A   Mostly Cloudy
3:30 AM 60.8 °F 51.8 °F 72% 29.98 in 6.2 mi SW 5.8 mph - N/A   Mostly Cloudy
4:00 AM 60.8 °F 50.0 °F 68% 29.98 in - SW 8.1 mph - N/A   Clear
4:30 AM 59.0 °F 50.0 °F 72% 29.98 in - WSW 5.8 mph - N/A   Clear
5:00 AM 59.0 °F 50.0 °F 72% 29.98 in - WSW 6.9 mph - N/A   Clear
5:30 AM 57.2 °F 48.2 °F 72% 30.01 in - SW 5.8 mph - N/A   Clear
6:00 AM 57.2 °F 48.2 °F 72% 30.01 in - SW 8.1 mph - N/A   Clear
6:30 AM 57.2 °F 48.2 °F 72% 30.01 in - SW 6.9 mph - N/A   Clear
7:00 AM 55.4 °F 48.2 °F 77% 30.01 in - SW 6.9 mph - N/A   Clear
7:30 AM 55.4 °F 48.2 °F 77% 30.01 in - WSW 8.1 mph - N/A   Clear
8:00 AM 55.4 °F 48.2 °F 77% 30.04 in - WSW 8.1 mph - N/A   Clear
8:30 AM 55.4 °F 48.2 °F 77% 30.04 in - SW 5.8 mph - N/A   Clear
9:00 AM 57.2 °F 48.2 °F 72% 30.04 in - SW 5.8 mph - N/A   Clear
9:30 AM 59.0 °F 46.4 °F 63% 30.06 in - SW 6.9 mph - N/A   Clear
10:00 AM 57.2 °F 46.4 °F 67% 30.06 in - SW 5.8 mph - N/A   Clear
10:30 AM 59.0 °F 46.4 °F 63% 30.06 in - WSW 6.9 mph - N/A   Clear
11:00 AM 60.8 °F 44.6 °F 55% 30.06 in - SSW 8.1 mph - N/A   Clear
11:30 AM 62.6 °F 42.8 °F 48% 30.06 in 6.2 mi WSW 9.2 mph - N/A   Scattered Clouds
12:00 PM 64.4 °F 41.0 °F 42% 30.06 in 6.2 mi WSW 6.9 mph 19.6 mph N/A   Mostly Cloudy
12:30 PM 64.4 °F 42.8 °F 45% 30.06 in 6.2 mi SSW 9.2 mph - N/A   Mostly Cloudy
1:00 PM 66.2 °F 41.0 °F 40% 30.06 in 6.2 mi WSW 6.9 mph - N/A   Mostly Cloudy
1:30 PM 66.2 °F 42.8 °F 43% 30.06 in - WSW 9.2 mph - N/A   Clear
2:00 PM 68.0 °F 42.8 °F 40% 30.06 in - WSW 8.1 mph - N/A   Clear
2:30 PM 68.0 °F 41.0 °F 37% 30.06 in - Variable 9.2 mph - N/A   Clear
3:00 PM 68.0 °F 41.0 °F 37% 30.06 in - SW 9.2 mph - N/A   Clear
3:30 PM 68.0 °F 39.2 °F 35% 30.06 in - SW 8.1 mph - N/A   Clear
4:00 PM 68.0 °F 41.0 °F 37% 30.06 in - WSW 6.9 mph - N/A   Clear
4:30 PM 68.0 °F 37.4 °F 33% 30.06 in - SSW 5.8 mph - N/A   Clear
5:00 PM 68.0 °F 37.4 °F 33% 30.06 in - SSW 9.2 mph - N/A   Clear
5:30 PM 68.0 °F 37.4 °F 33% 30.06 in - South 6.9 mph - N/A   Clear
6:00 PM 68.0 °F 37.4 °F 33% 30.06 in - South 6.9 mph - N/A   Clear
6:30 PM 68.0 °F 37.4 °F 33% 30.06 in - South 6.9 mph - N/A   Clear
7:00 PM 66.2 °F 37.4 °F 35% 30.04 in - South 4.6 mph - N/A   Clear
7:30 PM 64.4 °F 42.8 °F 45% 30.04 in - NNW 4.6 mph - N/A   Clear
8:00 PM 64.4 °F 42.8 °F 45% 30.06 in - NW 3.5 mph - N/A   Clear
8:30 PM 64.4 °F 41.0 °F 42% 30.06 in - NNW 3.5 mph - N/A   Clear
9:00 PM 62.6 °F 44.6 °F 52% 30.06 in - Variable 2.3 mph - N/A   Clear
9:30 PM 62.6 °F 42.8 °F 48% 30.06 in - NNE 3.5 mph - N/A   Clear
10:00 PM 62.6 °F 41.0 °F 45% 30.06 in - North 3.5 mph - N/A   Clear
10:30 PM 62.6 °F 44.6 °F 52% 30.06 in - Variable 3.5 mph - N/A   Clear
11:00 PM 62.6 °F 44.6 °F 52% 30.06 in - NNE 3.5 mph - N/A   Clear
11:30 PM 60.8 °F 42.8 °F 52% 30.06 in - NNE 3.5 mph - N/A   Clear